Wind_Speed
33 33 33 33 33 34 34 34 34 35 35 35 36 37 37 38 38 37 36 37 37 36 36 36 37 38 38 39 40 41 41 42 42 43 43 44 44 44
34 34 34 34 35 35 35 35 34 35 35 36 37 38 37 37 37 37 37 37 37 37 38 38 38 38 39 40 41 41 42 42 42 42 42 42 41 40
34 34 35 35 35 34 35 35 35 35 35 36 37 37 37 36 37 37 37 37 37 37 38 38 39 39 39 40 41 41 40 41 40 40 40 39 38 37
32 32 32 33 33 32 34 34 34 35 36 37 37 36 36 36 36 36 36 37 37 37 38 38 38 39 39 39 39 39 39 38 38 37 36 35 34 34
30 30 31 31 31 32 32 33 33 34 35 35 35 35 35 34 35 36 37 36 37 37 38 38 38 38 39 39 38 37 37 36 35 34 33 32 31 30
29 29 29 30 30 31 30 31 32 34 35 35 35 35 35 35 35 36 36 36 36 36 36 36 37 37 37 36 36 34 33 32 31 30 29 28 27 27
28 28 28 29 29 29 29 30 31 31 32 32 33 34 34 34 34 34 34 34 34 34 34 34 35 35 34 33 32 31 29 28 28 27 26 25 24 24
26 27 28 28 28 28 29 29 28 29 30 30 31 31 32 32 32 32 32 32 32 32 32 32 32 32 31 29 28 27 26 25 24 23 22 22 22 22
24 24 25 25 25 25 26 27 28 29 29 29 29 29 29 30 30 30 30 30 30 30 30 30 29 28 27 26 25 24 23 22 21 21 20 20 20 20
20 20 21 21 22 23 24 25 25 26 26 26 27 27 27 27 27 27 27 27 27 27 26 26 25 24 23 23 22 21 20 19 19 18 18 18 18 18
16 17 18 19 20 20 20 21 22 22 23 23 24 24 24 24 24 24 23 23 23 22 22 22 21 20 20 19 18 18 17 17 16 16 16 16 16 16
14 14 14 15 15 16 17 18 18 19 19 20 20 20 21 21 21 20 20 19 19 19 19 18 18 18 17 17 16 16 15 15 14 15 15 15 15 15
11 11 12 12 13 14 15 15 15 16 16 16 17 17 17 18 18 18 18 18 18 18 18 17 16 16 15 15 14 14 13 13 13 13 13 14 14 14
7 8 8 9 10 11 12 12 12 12 13 13 14 14 14 15 15 16 16 16 16 16 16 15 14 14 13 13 12 12 12 12 12 13 13 13 13 13
4 4 5 6 7 8 8 8 9 9 9 10 10 11 11 12 12 13 13 13 13 13 13 13 12 12 12 11 11 11 11 11 12 12 12 12 13 13
4 4 5 5 6 6 6 6 6 7 7 7 7 8 8 9 9 9 9 9 9 9 9 9 9 10 10 10 10 11 11 11 11 12 12 12 13 13
5 5 5 5 5 5 5 5 6 6 6 5 6 6 6 6 7 7 7 7 8 7 8 8 8 9 9 9 10 10 11 11 11 11 12 12 13 13
7 7 6 6 6 6 5 5 5 5 5 5 5 5 5 5 6 6 6 6 6 6 7 7 8 8 8 8 9 10 10 11 12 12 12 13 13 14
9 8 8 8 7 7 7 6 6 5 5 5 5 5 5 5 5 5 5 5 5 5 6 6 6 7 7 8 9 9 10 11 12 13 13 13 14 15
9 9 9 9 8 8 8 8 7 6 6 5 5 5 5 5 4 4 4 5 5 5 5 5 6 7 7 8 10 10 11 12 13 14 14 15 16 16
11 10 10 10 10 9 9 9 8 7 7 6 6 6 6 5 5 5 5 5 5 5 5 6 7 8 9 10 11 12 13 14 14 15 16 16 17 18
12 12 12 12 11 11 10 10 9 9 8 8 7 7 7 6 6 6 6 6 6 6 6 7 8 9 11 12 13 14 15 16 16 16 17 18 18 18
13 13 13 13 12 12 12 11 10 10 9 9 9 8 8 7 7 7 7 7 7 8 9 10 11 12 13 14 15 16 17 18 18 18 18 18 18 19
Wind_Direction
248 249 250 250 252 251 251 253 255 258 259 259 262 264 265 266 267 269 269 269 272 273 274 275 275 277 278 280 282 283 285 287 288 289 290 291 291 291
250 250 251 252 253 253 252 252 253 255 258 262 263 264 265 268 269 271 273 274 275 275 275 276 278 280 282 284 286 286 288 289 290 291 291 292 292 293
251 251 252 253 253 254 252 251 251 254 258 259 261 262 264 266 268 271 273 274 274 275 276 278 281 283 285 286 286 288 289 291 291 292 292 293 293 294
252 252 253 253 252 252 251 250 252 254 257 260 260 261 264 268 271 273 275 275 277 279 281 283 285 286 286 286 287 288 290 291 292 292 292 293 293 294
253 253 254 255 254 252 252 253 254 255 258 259 261 264 268 270 272 275 277 279 282 283 284 285 286 287 288 288 289 290 290 291 292 292 292 292 293 294
254 255 255 255 255 253 252 254 254 255 258 260 263 266 269 271 273 276 278 280 282 283 284 286 287 288 288 289 290 290 291 292 292 292 292 292 293 295
254 254 254 253 256 255 255 255 255 258 260 262 265 267 270 273 274 277 280 281 282 284 286 287 287 288 288 289 290 292 291 291 290 291 291 292 293 295
253 254 254 256 258 258 258 257 259 263 265 266 268 270 272 274 276 278 280 281 283 284 286 286 287 288 289 290 291 292 291 290 290 290 291 292 294 296
256 257 257 258 258 259 261 263 264 266 267 268 270 273 274 275 276 277 279 281 282 283 284 285 285 287 289 290 291 290 290 289 289 290 291 292 295 297
259 258 260 264 263 262 263 265 267 268 270 272 272 273 274 276 278 279 279 280 281 282 282 283 284 286 288 289 289 288 288 288 289 289 291 293 296 300
260 262 263 265 264 263 265 267 267 268 270 272 273 274 275 277 278 279 280 280 281 281 283 284 284 285 287 288 288 289 289 288 289 289 292 295 299 302
263 265 266 267 267 268 271 273 273 274 275 277 277 278 279 279 279 279 280 280 281 282 283 284 285 287 288 287 287 287 287 288 289 290 292 296 300 303
268 270 272 272 274 275 276 277 278 278 278 280 282 281 280 281 281 280 280 279 280 280 281 282 285 286 285 284 285 285 286 288 289 291 295 300 303 306
276 275 275 279 282 281 280 280 282 284 284 283 283 284 285 285 285 283 280 278 276 278 279 281 282 282 282 282 283 284 286 289 291 295 298 302 305 308
313 309 305 304 304 300 295 292 294 294 292 290 290 290 290 290 289 286 282 280 280 281 280 279 277 278 279 282 284 286 288 290 294 297 301 305 306 308
2 346 332 325 323 319 312 306 305 305 302 301 303 303 302 300 297 290 285 283 286 285 282 280 279 280 280 282 285 288 291 294 297 299 303 306 307 308
19 8 2 358 351 343 332 325 320 318 316 316 317 316 314 310 305 302 297 295 292 288 286 285 284 283 284 284 287 290 294 296 298 301 305 307 307 308
41 36 30 22 15 11 5 355 348 344 339 332 332 332 327 320 316 313 309 306 300 297 295 293 291 290 289 290 292 295 297 300 303 305 307 307 308 309
50 45 40 35 33 30 25 22 19 15 10 2 355 350 345 337 330 324 320 317 312 309 306 303 301 299 298 298 299 300 302 304 305 305 306 307 308 310
50 47 44 43 39 37 37 37 34 30 25 19 13 8 3 358 353 346 338 330 323 318 316 312 309 306 305 305 305 305 305 306 306 306 307 307 308 309
55 52 50 49 49 50 49 46 42 38 33 29 23 18 14 9 4 357 349 342 335 328 322 318 315 312 309 307 308 308 308 308 307 306 307 307 307 308
58 57 56 56 54 53 51 48 44 40 35 30 26 21 16 10 3 357 352 348 342 335 328 322 317 313 312 310 309 308 308 308 307 306 306 306 306 307
60 59 58 56 54 52 50 47 43 40 36 31 26 20 14 8 3 357 352 346 339 331 325 320 317 313 311 310 309 308 307 307 307 307 306 305 304 304
Height
5786 5788 5790 5791 5792 5794 5795 5796 5797 5798 5798 5799 5799 5799 5799 5799 5798 5798 5798 5797 5796 5795 5794 5793 5791 5790 5788 5786 5784 5782 5779 5777 5774 5771 5768 5764 5761 5757
5778 5780 5782 5783 5785 5786 5787 5788 5789 5790 5790 5791 5791 5791 5790 5790 5790 5789 5789 5788 5787 5786 5785 5784 5782 5781 5779 5777 5774 5772 5769 5766 5764 5761 5757 5754 5750 5747
5771 5772 5774 5775 5776 5778 5779 5780 5781 5782 5782 5782 5782 5782 5782 5782 5782 5781 5780 5779 5778 5777 5776 5775 5773 5772 5769 5767 5765 5762 5759 5756 5753 5750 5747 5744 5741 5738
5763 5764 5766 5767 5768 5770 5771 5772 5773 5773 5774 5774 5774 5774 5774 5774 5773 5772 5771 5770 5770 5768 5767 5766 5764 5762 5760 5757 5755 5752 5750 5747 5744 5741 5738 5735 5732 5729
5755 5757 5758 5759 5760 5761 5762 5763 5764 5765 5766 5766 5766 5766 5765 5765 5765 5764 5763 5762 5761 5759 5758 5756 5754 5752 5750 5748 5746 5743 5741 5738 5736 5733 5730 5727 5725 5722
5748 5749 5750 5752 5753 5753 5754 5755 5756 5757 5758 5758 5758 5758 5757 5757 5756 5756 5755 5754 5752 5751 5749 5747 5745 5743 5741 5739 5737 5735 5732 5730 5727 5725 5723 5720 5718 5715
5741 5742 5743 5744 5745 5746 5747 5748 5748 5749 5749 5749 5750 5750 5749 5749 5748 5747 5746 5745 5743 5742 5740 5739 5737 5735 5733 5731 5728 5726 5724 5722 5720 5718 5716 5714 5711 5709
5733 5734 5735 5736 5737 5738 5739 5740 5741 5741 5742 5742 5742 5742 5741 5741 5740 5739 5738 5737 5736 5734 5732 5730 5729 5727 5725 5723 5721 5719 5717 5715 5713 5711 5709 5708 5705 5703
5727 5728 5729 5729 5730 5731 5732 5732 5733 5734 5734 5735 5734 5734 5734 5733 5732 5731 5730 5729 5727 5726 5724 5723 5721 5719 5717 5716 5714 5712 5711 5709 5707 5706 5704 5702 5700 5698
5721 5722 5723 5723 5724 5724 5725 5726 5726 5726 5727 5727 5727 5726 5726 5725 5725 5724 5722 5721 5720 5718 5717 5716 5714 5712 5711 5710 5708 5706 5705 5704 5702 5701 5699 5697 5695 5693
5716 5717 5718 5718 5718 5718 5719 5719 5720 5720 5720 5720 5719 5719 5718 5718 5717 5717 5716 5715 5713 5712 5711 5710 5708 5707 5706 5704 5703 5701 5700 5699 5698 5697 5695 5693 5691 5689
5712 5713 5713 5713 5713 5713 5714 5714 5714 5714 5714 5713 5713 5713 5712 5712 5711 5710 5709 5709 5708 5707 5705 5704 5703 5702 5701 5700 5699 5697 5696 5695 5694 5693 5691 5689 5687 5685
5709 5709 5709 5709 5709 5709 5710 5710 5709 5709 5709 5708 5708 5707 5707 5706 5705 5705 5704 5703 5702 5701 5700 5699 5699 5698 5697 5696 5695 5694 5693 5692 5690 5689 5688 5686 5684 5682
5707 5706 5706 5706 5706 5706 5706 5706 5705 5705 5704 5704 5704 5703 5702 5701 5700 5700 5699 5698 5697 5697 5696 5695 5694 5694 5693 5693 5692 5691 5690 5688 5687 5686 5684 5683 5681 5678
5705 5705 5704 5704 5704 5704 5703 5703 5702 5702 5701 5701 5700 5699 5698 5697 5696 5695 5694 5694 5693 5693 5692 5691 5691 5690 5690 5690 5689 5688 5687 5686 5684 5683 5681 5679 5677 5675
5704 5704 5703 5703 5702 5702 5701 5701 5700 5700 5699 5698 5697 5696 5695 5694 5693 5692 5691 5691 5690 5690 5689 5689 5688 5688 5687 5687 5686 5685 5684 5683 5682 5680 5678 5676 5674 5672
5704 5704 5703 5702 5701 5700 5700 5699 5698 5698 5697 5696 5695 5694 5693 5692 5691 5690 5689 5689 5688 5688 5687 5687 5686 5686 5685 5684 5684 5683 5682 5680 5679 5677 5676 5674 5672 5669
5705 5704 5703 5702 5701 5700 5699 5698 5697 5696 5696 5695 5694 5693 5692 5691 5690 5689 5688 5687 5687 5686 5686 5685 5684 5684 5683 5683 5682 5681 5679 5678 5676 5675 5673 5671 5669 5666
5706 5705 5704 5703 5702 5701 5699 5698 5697 5696 5695 5694 5694 5693 5691 5690 5689 5688 5688 5687 5686 5685 5684 5684 5683 5682 5682 5681 5680 5679 5677 5675 5674 5672 5670 5668 5665 5663
5708 5706 5705 5704 5703 5701 5700 5699 5698 5697 5696 5695 5694 5693 5692 5691 5689 5688 5687 5686 5685 5684 5684 5683 5682 5681 5680 5679 5678 5676 5675 5673 5671 5669 5666 5664 5662 5659
5710 5708 5707 5706 5704 5703 5702 5701 5699 5698 5697 5696 5695 5694 5692 5691 5690 5689 5687 5686 5685 5684 5683 5682 5681 5680 5678 5677 5675 5674 5672 5670 5667 5665 5663 5660 5658 5655
5712 5711 5709 5708 5707 5705 5704 5703 5701 5700 5699 5698 5696 5695 5693 5692 5690 5689 5688 5686 5685 5683 5682 5681 5679 5678 5676 5674 5673 5671 5668 5666 5664 5661 5659 5656 5653 5651
5715 5714 5712 5711 5710 5708 5707 5705 5704 5702 5701 5699 5698 5696 5694 5693 5691 5689 5688 5686 5685 5683 5681 5680 5678 5676 5674 5672 5669 5667 5665 5662 5659 5657 5655 5652 5649 5646